Location: Bannatyne
(13.0833°N, 59.5333°W)
Time: 01:51:49
(UTC+00:00)

Vanguard 1 Rocket - All Passes

Search period start: 23 January 2020 00:00
Search period end: 02 February 2020 00:00
Orbit: 650 x 4226 km, 34.3° (Epoch: 22 January)

Date Brightness Start Highest point End Pass type
(mag) Time Alt. Az. Time Alt. Az. Time Alt. Az.
23 Jan - 09:36:45 10° SSE 09:38:56 13° SE 09:41:24 10° ESE visible
23 Jan - 11:58:08 10° WSW 12:03:24 64° NNW 12:12:43 10° NE daylight
23 Jan - 14:24:36 10° WNW 14:32:10 30° N 14:45:10 10° NE daylight
23 Jan - 16:52:00 10° NW 17:05:12 37° NNE 17:26:36 10° E daylight
23 Jan - 19:19:17 10° NW 19:39:52 69° NNE 20:06:05 10° ESE daylight
23 Jan - 21:49:20 10° WNW 22:13:51 61° SW 22:36:14 10° SE visible
24 Jan - 00:30:06 10° W 00:45:58 20° SW 00:58:42 10° S visible
24 Jan - 10:47:46 10° SW 10:52:21 63° SE 10:59:24 10° ENE daylight
24 Jan - 13:12:58 10° WNW 13:19:01 33° NNW 13:29:23 10° NE daylight
24 Jan - 15:40:16 10° NW 15:50:12 30° N 16:06:56 10° ENE daylight
24 Jan - 18:07:04 10° NW 18:24:04 53° NNE 18:49:24 10° E daylight
24 Jan - 20:35:08 10° WNW 20:58:17 81° SW 21:23:26 10° SE daylight
24 Jan - 23:09:27 10° W 23:31:16 35° SW 23:49:27 10° SSE visible
25 Jan - 09:38:15 10° SSW 09:41:48 23° SE 09:46:02 10° E visible
25 Jan - 12:01:41 10° W 12:06:46 44° NNW 12:15:22 10° NE daylight
25 Jan - 14:28:38 10° NW 14:36:04 26° N 14:48:23 10° NE daylight
25 Jan - 16:55:21 10° NW 17:08:45 41° NNE 17:30:47 10° E daylight
25 Jan - 19:22:10 10° NW 19:42:32 79° NE 20:09:05 10° ESE daylight
25 Jan - 21:52:41 10° WNW 22:16:10 51° SW 22:38:20 10° SSE visible
26 Jan - 00:37:33 10° WSW 00:49:06 15° SW 00:58:59 10° SSW visible
26 Jan - 10:50:51 10° WSW 10:55:25 80° NNW 11:02:23 10° NE daylight
26 Jan - 13:17:02 10° WNW 13:22:46 26° N 13:32:05 10° NE daylight
26 Jan - 15:43:55 10° NW 15:54:01 31° NNE 16:11:03 10° ENE daylight
26 Jan - 18:10:03 10° NW 18:27:03 61° NNE 18:52:54 10° ESE daylight
26 Jan - 20:38:09 10° WNW 21:00:40 70° SW 21:25:48 10° SE daylight
26 Jan - 23:14:14 10° W 23:33:56 27° SW 23:50:57 10° S visible
27 Jan - 09:40:37 10° SSW 09:44:43 40° SE 09:49:46 10° ENE visible
27 Jan - 12:05:30 10° W 12:10:19 31° NNW 12:17:56 10° NE daylight
27 Jan - 14:32:36 10° NW 14:39:58 25° N 14:51:56 10° ENE daylight
27 Jan - 16:58:31 10° NW 17:12:04 45° NNE 17:34:48 10° E daylight
27 Jan - 19:25:05 10° NW 19:45:05 89° NE 20:11:48 10° SE daylight
27 Jan - 21:56:23 10° WNW 22:18:37 42° SW 22:40:12 10° SSE visible
28 Jan - 00:49:38 10° SW 00:52:45 10° SW 00:55:43 10° SSW visible
28 Jan - 08:31:32 10° S 08:34:00 14° SE 08:36:29 10° ESE visible
28 Jan - 10:54:14 10° WSW 10:58:39 49° NNW 11:05:11 10° NE daylight
28 Jan - 13:21:11 10° NW 13:26:37 22° N 13:34:58 10° NE daylight
28 Jan - 15:47:22 10° NW 15:57:40 33° NNE 16:15:17 10° E daylight
28 Jan - 18:13:00 10° NW 18:29:50 70° NNE 18:56:06 10° ESE daylight
28 Jan - 20:41:22 10° WNW 21:03:06 59° SW 21:27:56 10° SE daylight
28 Jan - 23:19:59 10° W 23:36:56 21° SW 23:52:04 10° S visible
29 Jan - 09:43:25 10° SW 09:47:45 73° SE 09:53:04 10° ENE visible
29 Jan - 12:09:33 10° WNW 12:13:58 23° N 12:20:28 10° NE daylight
29 Jan - 14:36:23 10° NW 14:43:49 25° NNE 14:55:50 10° ENE daylight
29 Jan - 17:01:35 10° NW 17:15:11 52° NNE 17:38:34 10° ESE daylight
29 Jan - 19:28:06 10° WNW 19:47:36 79° SW 20:14:15 10° SE daylight
29 Jan - 22:00:35 10° W 22:21:18 34° SW 22:41:50 10° SSE visible
30 Jan - 08:33:13 10° SSW 08:37:05 26° SE 08:40:54 10° E visible
30 Jan - 10:57:56 10° W 11:02:04 31° NNW 11:07:49 10° NE daylight
30 Jan - 13:25:19 10° NW 13:30:30 19° N 13:38:08 10° NE daylight
30 Jan - 15:50:37 10° NW 16:01:07 37° NNE 16:19:29 10° E daylight
30 Jan - 18:15:56 10° NW 18:32:30 80° NE 18:58:59 10° ESE daylight
30 Jan - 20:44:51 10° WNW 21:05:39 49° SW 21:29:51 10° SSE daylight
30 Jan - 23:27:14 10° WSW 23:40:25 16° SW 23:52:31 10° S visible
31 Jan - 07:24:53 10° SSE 07:25:56 11° SSE 07:26:55 10° SE visible
31 Jan - 09:46:35 10° WSW 09:50:54 64° NNW 09:56:04 10° NE visible
31 Jan - 12:13:51 10° NW 12:17:44 18° N 12:23:03 10° NE daylight
31 Jan - 14:39:55 10° NW 14:47:32 26° NNE 15:00:00 10° ENE daylight
31 Jan - 17:04:34 10° NW 17:18:05 60° NNE 17:42:01 10° ESE daylight
31 Jan - 19:31:14 10° WNW 19:50:09 67° SW 20:16:25 10° SE daylight
31 Jan - 22:05:27 10° W 22:24:16 27° SW 22:43:11 10° SSE visible
01 Feb - 08:35:38 10° SW 08:40:11 48° SE 08:44:32 10° ENE visible
01 Feb - 11:01:57 10° WNW 11:05:35 21° NNW 11:10:19 10° NNE daylight
01 Feb - 13:29:16 10° NNW 13:34:21 18° NNE 13:41:40 10° NE daylight
01 Feb - 15:53:43 10° NW 16:04:21 42° NNE 16:23:31 10° E daylight
01 Feb - 18:18:56 10° WNW 18:35:08 88° SW 19:01:33 10° SE daylight
01 Feb - 20:48:42 10° W 21:08:24 40° SW 21:31:30 10° SSE daylight
